| time (UTC) | temp C | wind direction | speed KPH | gust KPH | rain 1hr cm | rain 24hr cm | rain mn cm | humidity % | barometer mb |
| 20260503224544 | 17 | 298 | 6.4 | 19.3 | 0.00 | 0.00 | 0.00 | 71 | 1009.3 |
| 20260503223044 | 17 | 281 | 4.8 | 16.1 | 0.00 | 0.00 | 0.00 | 74 | 1009.5 |
| 20260503222544 | 17 | 264 | 12.9 | 14.5 | 0.00 | 0.00 | 0.00 | 75 | 1009.6 |
| 20260503222044 | 16 | 273 | 8.0 | 14.5 | 0.00 | 0.00 | 0.00 | 75 | 1009.6 |
| 20260503221544 | 16 | 277 | 12.9 | 14.5 | 0.00 | 0.00 | 0.00 | 77 | 1009.7 |
| 20260503221044 | 16 | 284 | 11.3 | 17.7 | 0.00 | 0.00 | 0.00 | 77 | 1009.7 |
| 20260503220043 | 16 | 297 | 9.7 | 17.7 | 0.00 | 0.00 | 0.00 | 77 | 1009.8 |
| 20260503215545 | 16 | 301 | 8.0 | 22.5 | 0.00 | 0.00 | 0.00 | 77 | 1009.9 |
| 20260503215043 | 16 | 302 | 17.7 | 22.5 | 0.00 | 0.00 | 0.00 | 76 | 1010.0 |
| 20260503214543 | 16 | 277 | 14.5 | 20.9 | 0.00 | 0.00 | 0.00 | 76 | 1010.0 |
| 20260503214043 | 16 | 281 | 12.9 | 19.3 | 0.00 | 0.00 | 0.00 | 77 | 1010.1 |
| 20260503213543 | 16 | 303 | 4.8 | 12.9 | 0.00 | 0.00 | 0.00 | 80 | 1010.1 |
| 20260503213043 | 16 | 307 | 6.4 | 12.9 | 0.00 | 0.00 | 0.00 | 80 | 1010.1 |
| 20260503212543 | 16 | 307 | 3.2 | 14.5 | 0.00 | 0.00 | 0.00 | 80 | 1010.2 |
| 20260503212043 | 16 | 306 | 8.0 | 17.7 | 0.00 | 0.00 | 0.00 | 80 | 1010.2 |
| 20260503211543 | 16 | 340 | 12.9 | 17.7 | 0.00 | 0.00 | 0.00 | 80 | 1010.3 |
| 20260503211043 | 16 | 275 | 16.1 | 16.1 | 0.00 | 0.00 | 0.00 | 79 | 1010.3 |
| 20260503210043 | 16 | 272 | 11.3 | 12.9 | 0.00 | 0.00 | 0.00 | 77 | 1010.4 |
| 20260503205544 | 17 | 274 | 6.4 | 16.1 | 0.00 | 0.00 | 0.00 | 75 | 1010.4 |
| 20260503204543 | 16 | 277 | 6.4 | 17.7 | 0.00 | 0.00 | 0.00 | 75 | 1010.5 |
| 20260503204042 | 16 | 306 | 6.4 | 17.7 | 0.00 | 0.00 | 0.00 | 76 | 1010.5 |
| 20260503203543 | 16 | 300 | 17.7 | 17.7 | 0.00 | 0.00 | 0.00 | 77 | 1010.5 |
| 20260503203042 | 16 | 278 | 14.5 | 17.7 | 0.00 | 0.00 | 0.00 | 79 | 1010.6 |
| 20260503202542 | 16 | 283 | 11.3 | 16.1 | 0.00 | 0.00 | 0.00 | 79 | 1010.5 |
| 20260503202042 | 16 | 302 | 12.9 | 16.1 | 0.00 | 0.00 | 0.00 | 78 | 1010.6 |
| 20260503201543 | 16 | 301 | 9.7 | 17.7 | 0.00 | 0.00 | 0.00 | 79 | 1010.7 |
| 20260503201043 | 16 | 298 | 14.5 | 17.7 | 0.00 | 0.00 | 0.00 | 79 | 1010.7 |
| 20260503200042 | 15 | 277 | 14.5 | 20.9 | 0.00 | 0.00 | 0.00 | 80 | 1010.9 |
| 20260503195542 | 15 | 279 | 19.3 | 20.9 | 0.00 | 0.00 | 0.00 | 80 | 1011.0 |
| 20260503195042 | 15 | 297 | 6.4 | 16.1 | 0.00 | 0.00 | 0.00 | 82 | 1011.1 |
| 20260503194542 | 15 | 285 | 14.5 | 16.1 | 0.00 | 0.00 | 0.00 | 80 | 1011.2 |
| 20260503194042 | 16 | 282 | 6.4 | 12.9 | 0.00 | 0.00 | 0.00 | 79 | 1011.3 |
| 20260503193542 | 16 | 283 | 0.0 | 11.3 | 0.00 | 0.00 | 0.00 | 78 | 1011.2 |
| 20260503192542 | 16 | 285 | 0.0 | 11.3 | 0.00 | 0.00 | 0.00 | 81 | 1011.3 |
| 20260503192042 | 15 | 286 | 6.4 | 12.9 | 0.00 | 0.00 | 0.00 | 80 | 1011.4 |
| 20260503191042 | 15 | 275 | 0.0 | 16.1 | 0.00 | 0.00 | 0.00 | 80 | 1011.5 |
| 20260503190541 | 15 | 297 | 9.7 | 16.1 | 0.00 | 0.00 | 0.00 | 80 | 1011.5 |
| 20260503190041 | 15 | 302 | 6.4 | 16.1 | 0.00 | 0.00 | 0.00 | 80 | 1011.5 |
| 20260503185541 | 15 | 270 | 9.7 | 16.1 | 0.00 | 0.00 | 0.00 | 81 | 1011.6 |
| 20260503184041 | 15 | 273 | 6.4 | 19.3 | 0.00 | 0.00 | 0.00 | 83 | 1011.7 |
| 20260503183541 | 15 | 271 | 16.1 | 16.1 | 0.00 | 0.00 | 0.00 | 84 | 1011.7 |
| 20260503183042 | 15 | 279 | 3.2 | 14.5 | 0.00 | 0.00 | 0.00 | 85 | 1011.8 |
| 20260503182041 | 14 | 299 | 8.0 | 20.9 | 0.00 | 0.00 | 0.00 | 84 | 1011.9 |
| 20260503181541 | 15 | 313 | 12.9 | 24.1 | 0.00 | 0.00 | 0.00 | 83 | 1011.9 |
| 20260503181041 | 15 | 318 | 14.5 | 25.7 | 0.00 | 0.00 | 0.00 | 83 | 1011.9 |
| 20260503180541 | 15 | 345 | 19.3 | 25.7 | 0.00 | 0.00 | 0.00 | 83 | 1012.0 |
| 20260503180040 | 14 | 335 | 20.9 | 24.1 | 0.00 | 0.00 | 0.00 | 84 | 1012.0 |
| 20260503175541 | 14 | 314 | 16.1 | 24.1 | 0.00 | 0.00 | 0.00 | 84 | 1012.0 |
| 20260503175040 | 14 | 305 | 16.1 | 20.9 | 0.00 | 0.00 | 0.00 | 84 | 1012.0 |
| 20260503174041 | 14 | 301 | 14.5 | 19.3 | 0.00 | 0.00 | 0.00 | 84 | 1012.2 |
| 20260503173540 | 14 | 266 | 12.9 | 16.1 | 0.00 | 0.00 | 0.00 | 84 | 1012.2 |
| 20260503173041 | 14 | 250 | 6.4 | 16.1 | 0.00 | 0.00 | 0.00 | 84 | 1012.2 |
| 20260503172540 | 14 | 277 | 12.9 | 16.1 | 0.00 | 0.00 | 0.00 | 85 | 1012.2 |
| 20260503172040 | 14 | 301 | 12.9 | 16.1 | 0.00 | 0.00 | 0.00 | 85 | 1012.2 |
| 20260503171540 | 14 | 309 | 9.7 | 16.1 | 0.00 | 0.00 | 0.00 | 84 | 1012.2 |
| 20260503171040 | 14 | 317 | 8.0 | 16.1 | 0.00 | 0.00 | 0.00 | 84 | 1012.3 |
| 20260503170540 | 14 | 329 | 9.7 | 14.5 | 0.00 | 0.00 | 0.00 | 84 | 1012.3 |
| 20260503131037 | 12 | 345 | 4.8 | 9.7 | 0.00 | 0.00 | 0.00 | 84 | 1012.1 |
| 20260503130537 | 12 | 345 | 8.0 | 9.7 | 0.00 | 0.00 | 0.00 | 84 | 1012.1 |
| 20260503110536 | 11 | 306 | 0.0 | 4.8 | 0.00 | 0.00 | 0.00 | 87 | 1012.3 |
| 20260503081534 | 13 | 319 | 6.4 | 8.0 | 0.00 | 0.00 | 0.00 | 82 | 1012.4 |
| 20260503081033 | 13 | 319 | 0.0 | 4.8 | 0.00 | 0.00 | 0.00 | 82 | 1012.3 |
| 20260503072532 | 13 | 319 | 0.0 | 1.6 | 0.00 | 0.00 | 0.00 | 80 | 1012.1 |
| 20260503072032 | 13 | 319 | 0.0 | 1.6 | 0.00 | 0.00 | 0.00 | 80 | 1012.2 |
| 20260503071534 | 13 | 319 | 0.0 | 0.0 | 0.00 | 0.00 | 0.00 | 80 | 1012.0 |
| 20260503071033 | 13 | 319 | 0.0 | 0.0 | 0.00 | 0.00 | 0.00 | 81 | 1012.1 |
| 20260503055101 | 13 | 318 | 0.0 | 3.2 | 0.00 | 0.00 | 0.00 | 80 | 1011.9 |
| 20260503054102 | 14 | 318 | 0.0 | 14.5 | 0.00 | 0.00 | 0.00 | 78 | 1011.9 |
| 20260503053602 | 14 | 318 | 4.8 | 14.5 | 0.00 | 0.00 | 0.00 | 77 | 1011.9 |
| 20260503053101 | 14 | 316 | 9.7 | 14.5 | 0.00 | 0.00 | 0.00 | 77 | 1012.0 |
| 20260503052602 | 14 | 329 | 14.5 | 14.5 | 0.00 | 0.00 | 0.00 | 77 | 1011.9 |
| 20260503052101 | 14 | 340 | 1.6 | 8.0 | 0.00 | 0.00 | 0.00 | 77 | 1011.9 |
| 20260503051601 | 15 | 340 | 3.2 | 9.7 | 0.00 | 0.00 | 0.00 | 77 | 1012.0 |
| 20260503051101 | 15 | 340 | 8.0 | 12.9 | 0.00 | 0.00 | 0.00 | 77 | 1012.0 |
| 20260503050601 | 15 | 340 | 4.8 | 12.9 | 0.00 | 0.00 | 0.00 | 76 | 1012.0 |
| 20260503045600 | 15 | 340 | 12.9 | 16.1 | 0.00 | 0.00 | 0.00 | 77 | 1011.9 |
| 20260503045101 | 14 | 345 | 12.9 | 16.1 | 0.00 | 0.00 | 0.00 | 77 | 1011.8 |
| 20260503044600 | 14 | 358 | 11.3 | 14.5 | 0.00 | 0.00 | 0.00 | 78 | 1011.8 |
| 20260503044101 | 14 | 358 | 0.0 | 6.4 | 0.00 | 0.00 | 0.00 | 77 | 1011.8 |
| 20260503042601 | 15 | 358 | 0.0 | 8.0 | 0.00 | 0.00 | 0.00 | 74 | 1011.7 |
| 20260503042101 | 15 | 358 | 3.2 | 12.9 | 0.00 | 0.00 | 0.00 | 74 | 1011.6 |
| 20260503041600 | 15 | 358 | 4.8 | 12.9 | 0.00 | 0.00 | 0.00 | 73 | 1011.6 |
| 20260503041100 | 15 | 358 | 0.0 | 12.9 | 0.00 | 0.00 | 0.00 | 73 | 1011.5 |
| 20260503040600 | 15 | 358 | 11.3 | 12.9 | 0.00 | 0.00 | 0.00 | 74 | 1011.5 |
| 20260503040100 | 15 | 358 | 4.8 | 8.0 | 0.00 | 0.00 | 0.00 | 74 | 1011.5 |
| 20260503035601 | 15 | 358 | 1.6 | 8.0 | 0.00 | 0.00 | 0.00 | 74 | 1011.4 |
| 20260503035100 | 15 | 358 | 6.4 | 12.9 | 0.00 | 0.00 | 0.00 | 74 | 1011.4 |
| 20260503034600 | 15 | 358 | 0.0 | 16.1 | 0.00 | 0.00 | 0.00 | 74 | 1011.4 |
| 20260503034100 | 15 | 358 | 11.3 | 17.7 | 0.00 | 0.00 | 0.00 | 73 | 1011.2 |
| 20260503033600 | 15 | 358 | 8.0 | 17.7 | 0.00 | 0.00 | 0.00 | 73 | 1011.2 |
| 20260503033100 | 15 | 358 | 11.3 | 14.5 | 0.00 | 0.00 | 0.00 | 73 | 1011.1 |
| 20260503032600 | 15 | 358 | 11.3 | 16.1 | 0.00 | 0.00 | 0.00 | 73 | 1011.1 |
| 20260503032100 | 16 | 356 | 8.0 | 16.1 | 0.00 | 0.00 | 0.00 | 72 | 1011.0 |
| 20260503031559 | 16 | 345 | 16.1 | 16.1 | 0.00 | 0.00 | 0.00 | 72 | 1011.0 |
| 20260503031059 | 16 | 336 | 6.4 | 9.7 | 0.00 | 0.00 | 0.00 | 71 | 1011.0 |
| 20260503030600 | 16 | 321 | 3.2 | 9.7 | 0.00 | 0.00 | 0.00 | 71 | 1011.0 |
| 20260503030059 | 16 | 321 | 8.0 | 8.0 | 0.00 | 0.00 | 0.00 | 71 | 1010.9 |
| 20260503025559 | 16 | 322 | 1.6 | 16.1 | 0.00 | 0.00 | 0.00 | 71 | 1010.9 |
| 20260503025059 | 16 | 321 | 8.0 | 16.1 | 0.00 | 0.00 | 0.00 | 72 | 1010.9 |
| 20260503024600 | 15 | 345 | 14.5 | 16.1 | 0.00 | 0.00 | 0.00 | 73 | 1010.9 |
| 20260503024100 | 15 | 345 | 0.0 | 9.7 | 0.00 | 0.00 | 0.00 | 74 | 1011.0 |
| 20260503023559 | 15 | 345 | 1.6 | 12.9 | 0.00 | 0.00 | 0.00 | 75 | 1011.0 |
| 20260503023059 | 15 | 345 | 8.0 | 17.7 | 0.00 | 0.00 | 0.00 | 75 | 1010.9 |
| 20260503022559 | 15 | 345 | 4.8 | 17.7 | 0.00 | 0.00 | 0.00 | 75 | 1010.9 |
| 20260503022059 | 15 | 336 | 6.4 | 14.5 | 0.00 | 0.00 | 0.00 | 76 | 1011.0 |
| 20260503021559 | 15 | 335 | 8.0 | 17.7 | 0.00 | 0.00 | 0.00 | 76 | 1011.0 |
| 20260503020558 | 15 | 306 | 8.0 | 12.9 | 0.00 | 0.00 | 0.00 | 78 | 1011.0 |
| 20260503015559 | 15 | 310 | 9.7 | 24.1 | 0.00 | 0.00 | 0.00 | 76 | 1011.1 |
| 20260503015059 | 15 | 316 | 17.7 | 27.4 | 0.00 | 0.00 | 0.00 | 76 | 1011.1 |
| 20260503014559 | 15 | 296 | 22.5 | 29.0 | 0.00 | 0.00 | 0.00 | 76 | 1011.1 |
| 20260503014059 | 15 | 302 | 20.9 | 29.0 | 0.00 | 0.00 | 0.00 | 79 | 1011.2 |
| 20260503013558 | 14 | 274 | 3.2 | 20.9 | 0.00 | 0.00 | 0.00 | 81 | 1011.2 |
| 20260503013058 | 15 | 274 | 8.0 | 20.9 | 0.00 | 0.00 | 0.00 | 80 | 1011.2 |
| 20260503012559 | 15 | 300 | 14.5 | 19.3 | 0.00 | 0.00 | 0.00 | 80 | 1011.3 |
| 20260503011558 | 15 | 345 | 14.5 | 29.0 | 0.00 | 0.00 | 0.00 | 78 | 1011.4 |
| 20260503011058 | 15 | 350 | 24.1 | 29.0 | 0.00 | 0.00 | 0.00 | 79 | 1011.3 |
| 20260503010558 | 15 | 350 | 25.7 | 27.4 | 0.00 | 0.00 | 0.00 | 80 | 1011.4 |
| 20260503010058 | 15 | 350 | 22.5 | 25.7 | 0.00 | 0.00 | 0.00 | 81 | 1011.4 |
| 20260503005057 | 15 | 283 | 17.7 | 17.7 | 0.00 | 0.00 | 0.00 | 80 | 1011.4 |
| 20260503004558 | 15 | 285 | 14.5 | 14.5 | 0.00 | 0.00 | 0.00 | 80 | 1011.5 |
| 20260503004058 | 15 | 287 | 4.8 | 17.7 | 0.00 | 0.00 | 0.00 | 81 | 1011.5 |
| 20260503003557 | 15 | 296 | 6.4 | 19.3 | 0.00 | 0.00 | 0.00 | 81 | 1011.4 |
| 20260503003057 | 15 | 340 | 14.5 | 22.5 | 0.00 | 0.00 | 0.00 | 80 | 1011.4 |
| 20260503002057 | 15 | 340 | 14.5 | 22.5 | 0.00 | 0.00 | 0.00 | 80 | 1011.5 |
| 20260503001058 | 15 | 345 | 14.5 | 22.5 | 0.00 | 0.00 | 0.00 | 80 | 1011.6 |
| 20260503000557 | 15 | 306 | 17.7 | 19.3 | 0.00 | 0.00 | 0.00 | 80 | 1011.6 |
| 20260503000057 | 15 | 304 | 14.5 | 19.3 | 0.00 | 0.00 | 0.00 | 80 | 1011.6 |
| 20260502235557 | 15 | 306 | 14.5 | 19.3 | 0.00 | 0.00 | 0.00 | 80 | 1011.7 |
| 20260502235057 | 15 | 283 | 8.0 | 16.1 | 0.00 | 0.00 | 0.00 | 80 | 1011.7 |
| 20260502234557 | 15 | 293 | 6.4 | 16.1 | 0.00 | 0.00 | 0.00 | 81 | 1011.8 |
| 20260502233557 | 15 | 298 | 0.0 | 9.7 | 0.00 | 0.00 | 0.00 | 82 | 1012.0 |
| 20260502233057 | 15 | 299 | 0.0 | 19.3 | 0.00 | 0.00 | 0.00 | 82 | 1012.0 |
| 20260502232557 | 15 | 292 | 8.0 | 19.3 | 0.00 | 0.00 | 0.00 | 82 | 1012.1 |
| 20260502231557 | 14 | 298 | 9.7 | 14.5 | 0.00 | 0.00 | 0.00 | 85 | 1012.3 |
| 20260502231057 | 14 | 306 | 9.7 | 9.7 | 0.00 | 0.00 | 0.00 | 85 | 1012.3 |
| 20260502230058 | 14 | 309 | 3.2 | 14.5 | 0.00 | 0.00 | 0.00 | 85 | 1012.4 |
| 20260502225557 | 14 | 308 | 6.4 | 20.9 | 0.00 | 0.00 | 0.00 | 86 | 1012.6 |
| 20260502225056 | 14 | 311 | 12.9 | 20.9 | 0.00 | 0.00 | 0.00 | 85 | 1012.7 |